"2009-10-17 00:00:00",1333726,4.526,46.13,4.7,0.645,12.92,105.3148,12.88,14.07,32.61,0,110.4,13.28,13.68,8.1
"2009-10-17 00:00:30",1333727,5.085,40.29,11.11,1.258,13.84,105.3106,12.87,13.93,32.56,0,110.4,13.28,13.66,2.3
"2009-10-17 00:01:00",1333728,4.305,35.68,3.64,0.603,12.21,105.3094,12.86,13.92,32.51,0,110.4,13.32,13.66,357.7
"2009-10-17 00:01:30",1333729,4.62,38.08,4.47,0.425,12.18,105.3094,12.86,13.9,32.5,0,110.4,13.32,13.66,0.1
"2009-10-17 00:02:00",1333730,5.217,37.92,6.111,1.076,13.39,105.3094,12.86,14.01,32.46,0,110.4,13.28,13.66,359.9
"2009-10-17 00:02:30",1333731,6.196,42.59,6.78,1.195,16.27,105.3094,12.86,14,32.44,0,110.4,13.28,13.66,4.6
"2009-10-17 00:03:00",1333732,3.981,33.13,5.619,1.009,13.16,105.3092,12.86,14.03,32.63,0,110.4,13.28,13.66,355.1
"2009-10-17 00:03:30",1333733,4.878,38.71,5.26,0.845,12.75,105.2925,12.82,13.86,32.48,0,110.4,13.28,13.62,0.7
"2009-10-17 00:04:00",1333734,4.622,37.94,3.093,0.341,12.49,105.2798,12.79,13.97,32.69,0,110.4,13.31,13.59,359.9
"2009-10-17 00:04:30",1333735,5.656,55.1,8.63,1.27,14.84,105.2759,12.78,13.9,32.71,0,110.4,13.28,13.58,17.1
"2009-10-17 00:05:00",1333736,4.514,43.89,1.709,0.132,12.51,105.2756,12.78,13.9,32.72,0,110.4,13.31,13.57,5.9
"2009-10-17 00:05:30",1333737,5.966,51.09,6.986,1.335,14.87,105.2756,12.78,13.95,32.63,0,110.4,13.28,13.57,13.1
"2009-10-17 00:06:00",1333738,4.588,43.9,1.129,0.034,12.41,105.2756,12.78,13.91,32.39,0,110.4,13.31,13.57,5.9
"2009-10-17 00:06:30",1333739,4.878,45.28,2.839,0.232,12.32,105.2753,12.78,13.86,32.36,0,110.4,13.31,13.57,7.3
"2009-10-17 00:07:00",1333740,5.904,47.76,6.171,1.31,14.59,105.2705,12.76,13.9,32.58,0,110.4,13.28,13.56,9.8
"2009-10-17 00:07:30",1333741,5.423,46.08,7.957,1.647,15.23,105.2542,12.72,14.05,32.93,0,110.4,13.28,13.52,8.1
"2009-10-17 00:08:00",1333742,5.284,42.39,8.07,1.48,14.22,105.2435,12.7,13.81,32.75,0,110.4,13.28,13.49,4.4
"2009-10-17 00:08:30",1333743,4.577,40.79,2.273,0.184,12.3,105.2418,12.69,13.77,32.44,0,110.4,13.32,13.49,2.8
"2009-10-17 00:09:00",1333744,5.075,40.6,1.145,0.142,12.45,105.2418,12.69,13.82,32.39,0,110.4,13.32,13.49,2.6
"2009-10-17 00:09:30",1333745,5.746,52.63,7.617,1.293,15.27,105.2418,12.69,13.87,32.59,0,110.4,13.29,13.49,14.6
"2009-10-17 00:10:00",1333746,3.971,44.87,2.024,0.24,12.76,105.2421,12.69,13.81,32.55,0,110.4,13.32,13.49,6.9
"2009-10-17 00:10:30",1333747,5.194,51.8,6.362,1.381,14.7,105.2401,12.69,13.83,32.66,0,110.4,13.29,13.48,13.8
"2009-10-17 00:11:00",1333748,3.802,46.58,2.575,0.199,12.42,105.2267,12.65,13.7,32.7,0,110.4,13.32,13.45,8.6
"2009-10-17 00:11:30",1333749,4.18,40.7,4.654,0.944,12.83,105.2134,12.62,13.79,33.04,0,110.4,13.29,13.41,2.7
"2009-10-17 00:12:00",1333750,6.098,53.98,5.265,1.147,15.77,105.2089,12.61,13.84,33.19,0,110.4,13.29,13.40,16.0
"2009-10-17 00:12:30",1333751,4.525,47.7,5.654,0.997,13.58,105.213,12.62,13.83,33.25,0,110.4,13.29,13.41,9.7
"2009-10-17 00:13:00",1333752,4.622,46.76,6.59,1.108,12.99,105.2166,12.63,13.66,33.13,0,110.4,13.29,13.42,8.8
"2009-10-17 00:13:30",1333753,4.148,42.59,1.457,0.144,12.18,105.2153,12.62,13.65,33.1,0,110.4,13.33,13.42,4.6
"2009-10-17 00:14:00",1333754,4.888,46.58,8.62,1.148,14.14,105.1958,12.57,13.82,33.33,0,110.4,13.29,13.37,8.6
"2009-10-17 00:14:30",1333755,4.721,48.22,7.264,1.07,13.51,105.1952,12.57,13.66,33.1,0,110.4,13.29,13.37,10.2
"2009-10-17 00:15:00",1333756,4.519,48.69,4.979,0.881,13.79,105.1952,12.57,13.87,33.34,0,110.4,13.29,13.37,10.7
"2009-10-17 00:15:30",1333757,5.295,53.85,6.501,1.443,14.25,105.1963,12.57,13.61,33.14,0,110.4,13.29,13.37,15.8
"2009-10-17 00:16:00",1333758,4.792,56.02,8.06,1.235,14.39,105.18,12.53,13.77,33.41,0,110.4,13.29,13.33,18.0
"2009-10-17 00:16:30",1333759,4.28,53.95,7.038,1.287,13.89,105.1716,12.51,13.69,33.5,0,110.4,13.29,13.31,16.0
"2009-10-17 00:17:00",1333760,4.788,54.59,8.66,1.371,14.3,105.1697,12.51,13.64,33.46,0,110.4,13.29,13.30,16.6
"2009-10-17 00:17:30",1333761,4.64,53.49,8.5,1.345,14.28,105.1744,12.52,13.71,33.62,0,110.4,13.29,13.31,15.5
"2009-10-17 00:18:00",1333762,3.533,45.1,1.151,0.227,11.95,105.1747,12.52,13.53,33.58,0,110.4,13.33,13.32,7.1
"2009-10-17 00:18:30",1333763,3.285,45.67,1.753,0.082,12.17,105.1658,12.5,13.49,33.59,0,110.4,13.33,13.29,7.7
"2009-10-17 00:19:00",1333764,4.095,53.33,7.644,1.218,14.36,105.1466,12.45,13.59,33.67,0,110.4,13.29,13.24,15.3
"2009-10-17 00:19:30",1333765,3.676,46.4,5.737,1.179,13.33,105.1421,12.44,13.52,33.62,0,110.4,13.29,13.23,8.4
"2009-10-17 00:20:00",1333766,4.958,55.78,7.147,1.344,16.21,105.1421,12.44,13.61,33.83,0,110.4,13.29,13.23,17.8
"2009-10-17 00:20:30",1333767,3.323,45.56,3.283,0.529,13.4,105.1421,12.44,13.61,33.94,0,110.4,13.29,13.23,7.6
"2009-10-17 00:21:00",1333768,4.837,51.03,7.085,1.343,15.45,105.1384,12.43,13.59,34,0,110.3,13.29,13.22,13.0
"2009-10-17 00:21:30",1333769,3.275,44.06,2.715,0.243,12.65,105.1266,12.4,13.56,34.05,0,110.3,13.33,13.19,6.1
"2009-10-17 00:22:00",1333770,3.845,46.24,4.462,0.897,12.3,105.1088,12.35,13.43,33.98,0,110.3,13.29,13.15,8.2
"2009-10-17 00:22:30",1333771,4.916,52.43,7.378,1.253,14.1,105.1083,12.35,13.57,33.96,0,110.3,13.29,13.14,14.4
"2009-10-17 00:23:00",1333772,3.638,42.21,2.631,0.139,12,105.1083,12.35,13.37,33.75,0,110.3,13.33,13.14,4.2
"2009-10-17 00:23:30",1333773,3.576,39.33,0.98,0.152,12.17,105.1054,12.34,13.37,33.76,0,110.3,13.33,13.14,1.3
"2009-10-17 00:24:00",1333774,3.711,39.19,1.341,0.137,12.45,105.0896,12.3,13.36,33.84,0,110.3,13.33,13.10,1.2
"2009-10-17 00:24:30",1333775,3.665,41.49,5.781,0.702,13.63,105.0744,12.26,13.51,34.15,0,110.3,13.31,13.06,3.5
"2009-10-17 00:25:00",1333776,5.039,50.41,7.1,1.341,15.21,105.0744,12.26,13.35,34.05,0,110.3,13.31,13.06,12.4
"2009-10-17 00:25:30",1333777,4.619,53.12,7.164,1.261,15.29,105.0744,12.26,13.45,34.21,0,110.3,13.31,13.06,15.1
"2009-10-17 00:26:00",1333778,4.042,49.69,5.927,1.283,14.44,105.0736,12.26,13.52,34.4,0,110.3,13.31,13.06,11.7
"2009-10-17 00:26:30",1333779,3.256,46.09,3.094,0.069,12.25,105.0629,12.23,13.36,34.34,0,110.3,13.35,13.03,8.1
"2009-10-17 00:27:00",1333780,3.801,46.65,5.026,0.995,13.18,105.0482,12.2,13.43,34.51,0,110.3,13.31,12.99,8.7
"2009-10-17 00:27:30",1333781,3.948,46.47,4.981,1.086,12.73,105.0412,12.18,13.35,34.47,0,110.3,13.31,12.97,8.5
"2009-10-17 00:28:00",1333782,3.7,44.54,5.011,0.788,12.56,105.0409,12.18,13.3,34.37,0,110.3,13.31,12.97,6.5
"2009-10-17 00:28:30",1333783,3.45,44.11,1.778,0.154,12.19,105.0421,12.18,13.22,34.25,0,110.3,13.35,12.97,6.1
"2009-10-17 00:29:00",1333784,3.428,46.63,0.977,0.079,12.61,105.0433,12.18,13.22,34.33,0,110.3,13.35,12.98,8.6
"2009-10-17 00:29:30",1333785,3.608,49.23,3.788,0.287,13.35,105.0345,12.16,13.35,34.41,0,110.3,13.35,12.96,11.2
"2009-10-17 00:30:00",1333786,4.784,53.24,7.868,1.334,14.84,105.0231,12.13,13.24,34.2,0,110.3,13.31,12.93,15.2
"2009-10-17 00:30:30",1333787,5.18,54.35,6.59,1.322,16.19,105.0158,12.11,13.41,34.47,0,110.3,13.31,12.91,16.3
"2009-10-17 00:31:00",1333788,5.332,55.42,6.259,1.223,16.13,105.0165,12.11,13.41,34.63,0,110.3,13.31,12.91,17.4
"2009-10-17 00:31:30",1333789,3.229,45.84,1.655,0.103,12.04,105.0198,12.12,13.18,34.45,0,110.3,13.31,12.92,7.8
"2009-10-17 00:32:00",1333790,3.431,49.11,1.474,0.204,11.78,105.0189,12.12,13.25,34.63,0,110.3,13.35,12.92,11.1
"2009-10-17 00:32:30",1333791,4.93,55.1,6.121,1.275,14.19,105.0216,12.13,13.24,34.45,0,110.3,13.31,12.92,17.1
"2009-10-17 00:33:00",1333792,3.839,50.74,0.979,0.14,12.15,105.0236,12.13,13.2,34.41,0,110.3,13.35,12.93,12.7
"2009-10-17 00:33:30",1333793,3.832,49.38,1.842,0.123,12.23,105.0284,12.15,13.16,34.41,0,110.3,13.35,12.94,11.4
"2009-10-17 00:34:00",1333794,3.645,49.68,0.934,0.084,12.43,105.0325,12.16,13.14,34.44,0,110.3,13.35,12.95,11.7
"2009-10-17 00:34:30",1333795,4.509,52.71,6.274,1.185,13.89,105.0361,12.16,13.15,34.41,0,110.3,13.32,12.96,14.7
"2009-10-17 00:35:00",1333796,4.486,51.98,5.459,1.216,14.35,105.039,12.17,13.26,34.54,0,110.3,13.32,12.97,14.0
"2009-10-17 00:35:30",1333797,5.565,58.03,6.244,1.296,16.65,105.0405,12.18,13.42,34.73,0,110.3,13.31,12.97,20.0
"2009-10-17 00:36:00",1333798,5.586,58.91,6.673,1.261,15.94,105.0417,12.18,13.28,34.61,0,110.3,13.31,12.97,20.9
"2009-10-17 00:36:30",1333799,3.729,48.93,0.672,0.063,12.17,105.0423,12.18,13.14,34.49,0,110.3,13.35,12.98,10.9
"2009-10-17 00:37:00",1333800,4.857,53.61,7.968,1.334,14.1,105.042,12.18,13.21,34.59,0,110.3,13.31,12.97,15.6
"2009-10-17 00:37:30",1333801,4.827,53.16,7.484,1.297,14.15,105.0423,12.18,13.3,34.71,0,110.3,13.31,12.98,15.2
"2009-10-17 00:38:00",1333802,3.979,49.08,0.906,0.087,12.2,105.0423,12.18,13.16,34.53,0,110.3,13.35,12.98,11.1
"2009-10-17 00:38:30",1333803,4.103,50.14,0.654,0.078,12.23,105.0423,12.18,13.14,34.58,0,110.3,13.35,12.98,12.1
"2009-10-17 00:39:00",1333804,4.296,49.97,0.997,0.116,12.43,105.0423,12.18,13.16,34.64,0,110.3,13.35,12.98,12.0
"2009-10-17 00:39:30",1333805,4.958,50.29,5.687,0.991,13.86,105.0423,12.18,13.27,34.83,0,110.3,13.32,12.98,12.3
"2009-10-17 00:40:00",1333806,6.867,58.8,7.006,1.283,16.46,105.0423,12.18,13.4,35,0,110.3,13.32,12.98,20.8
"2009-10-17 00:40:30",1333807,7.482,61.62,6.88,1.231,16.55,105.0423,12.18,13.44,35.11,0,110.3,13.32,12.98,23.6
"2009-10-17 00:41:00",1333808,7.615,61.81,4.885,1.091,13.67,105.0423,12.18,13.19,34.28,0,110.3,13.32,12.98,23.8
"2009-10-17 00:41:30",1333809,9.15,65.45,7.669,1.467,13.44,105.0423,12.18,13.23,29.51,0,110.3,13.32,12.98,27.4
"2009-10-17 00:42:00",1333810,9.69,67.83,7.805,1.371,13.95,105.0423,12.18,13.27,28.15,0,110.3,13.32,12.98,29.8
"2009-10-17 00:42:30",1333811,8.59,62.19,0.717,0.33,11.88,105.0412,12.18,13.14,27.67,0,110.3,13.36,12.97,24.2
"2009-10-17 00:43:00",1333812,8.69,62.02,0.807,0.12,12,105.0197,12.12,13.14,27.5,0,110.3,13.36,12.92,24.0
"2009-10-17 00:43:30",1333813,10.93,71.6,6.314,1.318,15.82,105.0093,12.1,13.37,27.72,0,110.3,13.33,12.89,33.6
"2009-10-17 00:44:00",1333814,12.03,73.17,5.056,1.033,16.29,105.0085,12.09,13.41,27.48,0,110.3,13.33,12.89,35.2
"2009-10-17 00:44:30",1333815,11.72,66.02,7.117,1.346,14.56,105.0085,12.09,13.39,27.21,0,110.3,13.33,12.89,28.0
"2009-10-17 00:45:00",1333816,12.12,63.86,6.747,1.177,13.1,104.9921,12.05,13.28,26.54,0,110.3,13.33,12.85,25.9
"2009-10-17 00:45:30",1333817,12.91,65.44,7.432,1.37,13.66,104.9746,12.01,13.16,26.06,0,110.3,13.32,12.80,27.4
"2009-10-17 00:46:00",1333818,11.77,57.22,0.704,0.124,11.72,104.9715,12,13.11,25.59,0,110.3,13.36,12.79,19.2
"2009-10-17 00:46:30",1333819,12.8,62.24,6.215,1.336,14.16,104.9456,11.93,13.23,25.61,0,110.3,13.33,12.73,24.2
"2009-10-17 00:47:00",1333820,13.75,65.92,5.746,1.282,15.59,104.9408,11.92,13.23,25.33,0,110.3,13.33,12.71,27.9
"2009-10-17 00:47:30",1333821,13.41,65.86,6.551,1.287,15.36,104.9202,11.87,13.2,25.29,0,110.3,13.33,12.66,27.9
"2009-10-17 00:48:00",1333822,13.12,63.93,6.79,1.22,14.6,104.9069,11.83,13.19,25.5,0,110.3,13.33,12.63,25.9
"2009-10-17 00:48:30",1333823,12.84,61.84,6.321,1.164,13.78,104.9022,11.82,13,25.41,0,110.3,13.33,12.62,23.8
"2009-10-17 00:49:00",1333824,11.79,59.03,7.006,0.987,13.23,104.8776,11.76,13.04,25.72,0,110.3,13.33,12.55,21.0
"2009-10-17 00:49:30",1333825,12.79,57.78,9.1,1.114,13.51,104.8746,11.75,12.98,25.68,0,110.3,13.33,12.54,19.8
"2009-10-17 00:50:00",1333826,12.86,59.94,6.232,1.474,14.24,104.856,11.7,12.97,25.81,0,110.3,13.33,12.50,21.9
"2009-10-17 00:50:30",1333827,13.52,60.62,5.838,1.409,15.72,104.8413,11.67,13.04,25.91,0,110.3,13.33,12.46,22.6
"2009-10-17 00:51:00",1333828,13.9,61.48,3.173,0.853,16.24,104.842,11.67,12.98,25.86,0,110.3,13.33,12.46,23.5
"2009-10-17 00:51:30",1333829,12.94,51.07,5.304,1.233,12.88,104.8225,11.62,12.86,25.6,0,110.3,13.33,12.41,13.1
"2009-10-17 00:52:00",1333830,13.46,57.21,8.63,1.182,14.33,104.8175,11.61,12.93,25.74,0,110.3,13.32,12.40,19.2
"2009-10-17 00:52:30",1333831,13.77,50.92,6.749,1.217,13.7,104.8202,11.61,12.74,25.25,0,110.2,13.32,12.40,12.9
"2009-10-17 00:53:00",1333832,13.75,49.27,6.302,1.177,14.08,104.8015,11.56,12.86,25.32,0,110.2,13.32,12.36,11.3
"2009-10-17 00:53:30",1333833,14.78,54.77,5.421,1.224,15.81,104.7916,11.54,12.87,25.34,0,110.2,13.32,12.33,16.8
"2009-10-17 00:54:00",1333834,14.78,54.53,5.298,1.19,15.75,104.7914,11.54,12.83,24.94,0,110.2,13.32,12.33,16.5
"2009-10-17 00:54:30",1333835,14.3,51.75,6.87,1.272,14.66,104.7943,11.55,12.79,24.75,0,110.2,13.32,12.34,13.8
"2009-10-17 00:55:00",1333836,14.34,52.57,6.64,1.274,14.75,104.7997,11.56,12.81,24.48,0,110.2,13.32,12.35,14.6
"2009-10-17 00:55:30",1333837,14.06,52.19,6.887,1.396,14.32,104.7986,11.56,12.65,24.17,0,110.2,13.32,12.35,14.2
"2009-10-17 00:56:00",1333838,13.69,51.22,6.62,1.225,14.13,104.7982,11.56,12.69,24.28,0,110.2,13.32,12.35,13.2
"2009-10-17 00:56:30",1333839,14.1,54.9,6.964,1.252,15.55,104.7945,11.55,12.76,24.06,0,110.2,13.32,12.34,16.9
"2009-10-17 00:57:00",1333840,14.04,53.82,6.98,1.225,14.97,104.7861,11.52,12.7,23.87,0,110.2,13.32,12.32,15.8
"2009-10-17 00:57:30",1333841,13.9,55.22,6.114,1.298,15.14,104.7816,11.51,12.73,23.83,0,110.2,13.33,12.31,17.2
"2009-10-17 00:58:00",1333842,13.67,54.32,6.714,1.283,14.64,104.7777,11.5,12.72,23.72,0,110.2,13.33,12.30,16.3
"2009-10-17 00:58:30",1333843,14.14,56.95,5.446,1.149,15.32,104.7751,11.5,12.68,23.59,0,110.2,13.33,12.29,19.0
"2009-10-17 00:59:00",1333844,12.75,48.36,3.574,0.918,12.01,104.7743,11.49,12.52,23.27,0,110.2,13.33,12.29,10.4
"2009-10-17 00:59:30",1333845,13.23,52.93,6.635,1.145,13.81,104.7746,11.5,12.62,23.3,0,110.2,13.33,12.29,14.9
"2009-10-17 01:00:00",1333846,14.1,58.39,5.691,1.243,15.41,104.7732,11.49,12.68,23.38,0,110.2,13.33,12.28,20.4
"2009-10-17 01:00:30",1333847,14.17,57.66,6.316,1.275,15.3,104.7732,11.49,12.65,23.4,0,110.2,13.33,12.28,19.7
"2009-10-17 01:01:00",1333848,14.44,56.95,6.363,1.207,15.2,104.7732,11.49,12.71,23.57,0,110.2,13.33,12.28,19.0
"2009-10-17 01:01:30",1333849,14.95,59.48,5.061,1.166,15.2,104.7732,11.49,12.7,23.69,0,110.2,13.33,12.28,21.5
"2009-10-17 01:02:00",1333850,13.14,51.07,4.171,0.817,12.16,104.7732,11.49,12.51,23.54,0,110.2,13.33,12.28,13.1
"2009-10-17 01:02:30",1333851,14.26,56.59,6.657,1.312,14.14,104.7732,11.49,12.6,23.67,0,110.2,13.33,12.28,18.6
"2009-10-17 01:03:00",1333852,14.45,58.05,6.993,1.262,14.41,104.7732,11.49,12.63,23.7,0,110.2,13.33,12.28,20.0
"2009-10-17 01:03:30",1333853,14.52,60.09,6.198,1.221,15.35,104.7732,11.49,12.64,23.83,0,110.2,13.33,12.28,22.1
"2009-10-17 01:04:00",1333854,14.06,62.99,4.895,1,15.98,104.7732,11.49,12.69,23.75,0,110.2,13.33,12.28,25.0
"2009-10-17 01:04:30",1333855,13.34,59.35,6.941,1.13,14.41,104.7732,11.49,12.66,23.85,0,110.2,13.33,12.28,21.3
"2009-10-17 01:05:00",1333856,13.12,57.71,6.661,1.263,13.7,104.7732,11.49,12.5,23.68,0,110.2,13.33,12.28,19.7
"2009-10-17 01:05:30",1333857,13.19,55.77,7.478,1.219,13.02,104.7732,11.49,12.43,23.82,0,110.2,13.33,12.28,17.8
"2009-10-17 01:06:00",1333858,12.31,55.54,5.598,1.13,13.59,104.7732,11.49,12.58,24.01,0,110.2,13.33,12.28,17.5
"2009-10-17 01:06:30",1333859,13.57,61.32,6.152,1.264,15.62,104.7721,11.49,12.62,24.02,0,110.2,13.33,12.28,23.3
"2009-10-17 01:07:00",1333860,13.74,59.8,6.404,1.163,15.42,104.7673,11.48,12.7,24.43,0,110.2,13.33,12.27,21.8
"2009-10-17 01:07:30",1333861,13.35,58.2,5.841,1.231,15,104.7622,11.46,12.67,24.8,0,110.2,13.33,12.26,20.2
"2009-10-17 01:08:00",1333862,13.73,57.27,6.561,1.278,13.84,104.7469,11.42,12.54,24.68,0,110.2,13.33,12.22,19.3
"2009-10-17 01:08:30",1333863,12.95,49.26,4.557,0.82,11.64,104.7393,11.41,12.39,25.39,0,110.2,13.33,12.20,11.3
"2009-10-17 01:09:00",1333864,12.83,52.1,6.532,0.729,12.81,104.7393,11.41,12.52,25.74,0,110.2,13.33,12.20,14.1
"2009-10-17 01:09:30",1333865,14.45,56.89,6.892,1.258,15.28,104.7393,11.41,12.61,25.54,0,110.2,13.33,12.20,18.9
"2009-10-17 01:10:00",1333866,14.65,58.48,6.463,1.159,15.67,104.7393,11.41,12.68,26.31,0,110.2,13.33,12.20,20.5
"2009-10-17 01:10:30",1333867,14.81,59.64,6.668,1.059,15.47,104.7388,11.4,12.62,26.74,0,110.2,13.33,12.20,21.6
"2009-10-17 01:11:00",1333868,14.11,56.94,6.187,1.364,14.09,104.7303,11.38,12.5,26.53,0,110.2,13.33,12.17,18.9
"2009-10-17 01:11:30",1333869,12.04,52.14,4.489,0.874,12,104.7227,11.36,12.33,26.12,0,110.2,13.33,12.15,14.1
"2009-10-17 01:12:00",1333870,12.37,52.44,3.75,1.126,12.07,104.7075,11.32,12.4,26.35,0,110.2,13.33,12.12,14.4
"2009-10-17 01:12:30",1333871,13.24,59.99,5.931,1.416,15.19,104.7055,11.32,12.56,26.14,0,110.2,13.33,12.11,22.0
"2009-10-17 01:13:00",1333872,14.15,62.2,5.166,0.967,16.12,104.7055,11.32,12.61,26.15,0,110.2,13.33,12.11,24.2
"2009-10-17 01:13:30",1333873,13.78,63.11,5.314,1.029,15.53,104.7055,11.32,12.61,26.21,0,110.2,13.33,12.11,25.1
"2009-10-17 01:14:00",1333874,13.07,58.31,7.392,1.396,13.78,104.7055,11.32,12.44,26.21,0,110.2,13.33,12.11,20.3
"2009-10-17 01:14:30",1333875,12.68,57,6.212,1.266,12.94,104.7041,11.32,12.43,26.56,0,110.2,13.33,12.11,19.0
"2009-10-17 01:15:00",1333876,13.01,56.26,5.704,1.132,12.51,104.6936,11.29,12.26,27.84,0,110.3,13.33,12.08,18.3
"2009-10-17 01:15:30",1333877,13.24,60.55,6.86,1.093,14.1,104.6787,11.25,12.52,27.73,0,110.2,13.34,12.04,22.5
"2009-10-17 01:16:00",1333878,13.49,62.05,5.913,1.094,15.03,104.6716,11.23,12.52,27.05,0,110.2,13.34,12.02,24.0
"2009-10-17 01:16:30",1333879,14.55,64.52,4.421,0.832,16.12,104.6716,11.23,12.5,27.17,0,110.2,13.34,12.02,26.5
"2009-10-17 01:17:00",1333880,14,60.41,6.765,1.278,13.91,104.6716,11.23,12.44,27.26,0,110.2,13.34,12.02,22.4
"2009-10-17 01:17:30",1333881,13.93,59.45,6.63,1.223,13.51,104.6716,11.23,12.33,27.46,0,110.2,13.34,12.02,21.5
"2009-10-17 01:18:00",1333882,13.73,59.44,6.627,1.228,13.69,104.6708,11.23,12.42,27.68,0,110.2,13.34,12.02,21.4
"2009-10-17 01:18:30",1333883,14,60.11,6.497,1.259,13.89,104.6632,11.21,12.34,27.58,0,110.2,13.34,12.00,22.1
"2009-10-17 01:19:00",1333884,14.49,65.3,5.795,0.912,16.01,104.6558,11.19,12.49,27.5,0,110.2,13.34,11.98,27.3
"2009-10-17 01:19:30",1333885,13.94,66.76,6.079,1.084,15.22,104.6426,11.16,12.44,27.22,0,110.2,13.34,11.95,28.8
"2009-10-17 01:20:00",1333886,13.22,63.96,6.644,1.295,13.49,104.6378,11.15,12.28,27.01,0,110.2,13.34,11.94,26.0
"2009-10-17 01:20:30",1333887,12.93,64.84,6.768,1.304,13.27,104.6387,11.15,12.31,27.84,0,110.2,13.34,11.94,26.8
"2009-10-17 01:21:00",1333888,11.99,59.73,0.659,0.104,11.4,104.6384,11.15,12.28,28.6,0,110.2,13.37,11.94,21.7
"2009-10-17 01:21:30",1333889,13.77,70.79,6.377,1.203,14.79,104.6384,11.15,12.27,28.97,0,110.2,13.34,11.94,32.8
"2009-10-17 01:22:00",1333890,13.62,72.86,6.161,1.173,15.68,104.6393,11.15,12.45,29.09,0,110.2,13.34,11.94,34.9
"2009-10-17 01:22:30",1333891,13.18,71.85,6.195,1.16,14.91,104.6346,11.14,12.35,28.99,0,110.2,13.34,11.93,33.8
"2009-10-17 01:23:00",1333892,12.17,69.25,6.489,1.18,13.31,104.626,11.12,12.39,28.88,0,110.2,13.34,11.91,31.2
"2009-10-17 01:23:30",1333893,12.19,70.37,6.888,1.475,12.92,104.6119,11.08,12.16,28.91,0,110.2,13.34,11.87,32.4
"2009-10-17 01:24:00",1333894,11.87,70.27,7.078,1.27,13.34,104.6122,11.08,12.25,29.42,0,110.2,13.34,11.87,32.3
"2009-10-17 01:24:30",1333895,11.62,66.56,4.845,1.056,12.04,104.6154,11.09,12.11,30.24,0,110.2,13.34,11.88,28.6
"2009-10-17 01:25:00",1333896,13.31,77.39,2.889,0.915,16.1,104.6166,11.09,12.39,30.58,0,110.2,13.34,11.88,39.4
"2009-10-17 01:25:30",1333897,13.45,75.8,5.028,0.878,15.53,104.619,11.1,12.38,30.84,0,110.2,13.34,11.89,37.8
"2009-10-17 01:26:00",1333898,12.75,72.93,6.523,1.205,14.29,104.6205,11.1,12.37,30.65,0,110.2,13.34,11.89,34.9
"2009-10-17 01:26:30",1333899,12.17,72.34,4.499,1.164,12.31,104.6184,11.1,12.12,29.8,0,110.2,13.33,11.89,34.3
"2009-10-17 01:27:00",1333900,11.98,77.79,6.257,1.36,12.92,104.6138,11.08,12.15,28.43,0,110.2,13.33,11.87,39.8
"2009-10-17 01:27:30",1333901,10.92,79.6,4.923,1.109,11.86,104.5952,11.04,12.04,28.03,0,110.2,13.34,11.83,41.6
"2009-10-17 01:28:00",1333902,11.8,90.8,6.423,1.627,14.07,104.594,11.03,12.33,30.09,0,110.2,13.34,11.82,52.8
"2009-10-17 01:28:30",1333903,12.31,96,6.138,0.998,15.08,104.5923,11.03,12.33,31.65,0,110.2,13.34,11.82,58.0
"2009-10-17 01:29:00",1333904,11.28,94.4,6.378,1.34,13.9,104.5661,10.96,12.26,30.96,0,110.2,13.34,11.75,56.4
"2009-10-17 01:29:30",1333905,10.95,97.4,5.076,1.193,12.2,104.5648,10.96,12.05,32.23,0,110.2,13.34,11.75,59.4
"2009-10-17 01:30:00",1333906,11.36,98.7,6.248,1.337,12.52,104.5423,10.9,12.08,33.62,0,110.2,13.34,11.69,60.7
"2009-10-17 01:30:30",1333907,10.48,89.7,1.695,0.335,10.76,104.5333,10.88,12.09,34.29,0,110.2,13.38,11.67,51.7
"2009-10-17 01:31:00",1333908,12.1,104.2,4.605,1.156,14.72,104.5181,10.84,12.09,35.01,0,110.2,13.34,11.63,66.2
"2009-10-17 01:31:30",1333909,12.36,104.9,4.241,0.763,15.43,104.5004,10.79,12.19,35.16,0,110.2,13.34,11.58,66.9
"2009-10-17 01:32:00",1333910,12.17,103.9,6.036,1.052,14.25,104.4875,10.76,12.09,37.18,0,110.2,13.34,11.55,65.9
"2009-10-17 01:32:30",1333911,10.34,94.1,0.825,0.19,10.38,104.4694,10.71,11.94,37.72,0,110.2,13.38,11.50,56.1
"2009-10-17 01:33:00",1333912,11.04,98.4,6.862,1.351,12.58,104.4593,10.69,11.84,37.28,0,110.2,13.34,11.48,60.4
"2009-10-17 01:33:30",1333913,10.95,97.1,6.698,1.182,12.82,104.4356,10.63,11.9,37.5,0,110.2,13.34,11.42,59.1
"2009-10-17 01:34:00",1333914,11.32,95.5,6.377,1.405,12.81,104.4328,10.62,11.95,38.11,0,110.2,13.35,11.41,57.5
"2009-10-17 01:34:30",1333915,13.41,102.1,4.62,0.396,15.56,104.4127,10.57,11.98,38.65,0,110.1,13.35,11.36,64.1
"2009-10-17 01:35:00",1333916,13.59,102.6,3.37,1.008,14.85,104.4023,10.54,11.98,39.05,0,110.2,13.35,11.33,64.6
"2009-10-17 01:35:30",1333917,12.57,95.5,6.667,1.305,11.84,104.3902,10.51,11.85,39.13,0,110.2,13.35,11.30,57.5
"2009-10-17 01:36:00",1333918,12.63,97.4,6.496,1.398,11.91,104.3684,10.46,11.68,39.05,0,110.2,13.35,11.24,59.4
"2009-10-17 01:36:30",1333919,12.59,96.7,7.203,1.414,11.85,104.3492,10.41,11.66,38.75,0,110.2,13.35,11.20,58.7
"2009-10-17 01:37:00",1333920,12.89,102,7.028,1.376,12.95,104.332,10.36,11.63,39.07,0,110.2,13.35,11.15,64.0
"2009-10-17 01:37:30",1333921,13.73,106.8,3.471,0.761,15.07,104.303,10.29,11.78,39.55,0,110.2,13.35,11.08,68.8
"2009-10-17 01:38:00",1333922,13.64,107.1,4.211,0.656,15,104.2824,10.24,11.7,40.08,0,110.2,13.35,11.02,69.1
"2009-10-17 01:38:30",1333923,12.67,104.9,6.267,1.195,13.59,104.2649,10.19,11.58,40.28,0,110.2,13.35,10.98,66.9
"2009-10-17 01:39:00",1333924,11.17,99.6,4.959,0.958,10.58,104.2341,10.11,11.38,40.38,0,110.2,13.35,10.90,61.6
"2009-10-17 01:39:30",1333925,11.78,101.7,6.798,1.349,11.79,104.216,10.07,11.28,40.44,0,110.2,13.35,10.85,63.7
"2009-10-17 01:40:00",1333926,12.35,102.4,6.783,1.273,12.43,104.1991,10.02,11.45,41.22,0,110.2,13.35,10.81,64.4
"2009-10-17 01:40:30",1333927,13.93,107.3,3.769,0.694,14.81,104.1746,9.96,11.49,42.33,0,110.2,13.35,10.75,69.3
"2009-10-17 01:41:00",1333928,13.18,103.5,6.819,1.171,13.44,104.1582,9.92,11.35,42.47,0,110.2,13.36,10.71,65.5
"2009-10-17 01:41:30",1333929,13.68,103.5,5.086,1.054,13.5,104.1345,9.86,11.28,42.54,0,110.2,13.35,10.64,65.5
"2009-10-17 01:42:00",1333930,12.77,101.5,6.594,1.433,12.59,104.1139,9.81,11.21,42.81,0,110.2,13.34,10.59,63.5
"2009-10-17 01:42:30",1333931,12.19,96.9,5.684,1.087,11.32,104.0964,9.76,11.13,43,0,110.2,13.35,10.55,58.9
"2009-10-17 01:43:00",1333932,12.79,100.3,6.863,1.417,13.06,104.0755,9.71,11.13,43.24,0,110.2,13.34,10.49,62.3
"2009-10-17 01:43:30",1333933,13.71,104,5.166,1.017,14.2,104.0623,9.67,11.1,43.64,0,110.2,13.34,10.46,66.0
"2009-10-17 01:44:00",1333934,13.2,101.8,6.733,1.335,13.44,104.0335,9.6,11.07,43.73,0,110.2,13.34,10.39,63.8
"2009-10-17 01:44:30",1333935,13.23,101.5,6.261,1.129,13.3,104.0298,9.59,10.98,43.87,0,110.2,13.35,10.38,63.5
"2009-10-17 01:45:00",1333936,12.89,100.5,6.134,1.353,12.19,104.0143,9.55,10.95,44.14,0,110.2,13.35,10.34,62.5
"2009-10-17 01:45:30",1333937,13.15,103,5.738,1.092,12.98,103.9962,9.5,10.95,44.31,0,110.1,13.35,10.29,65.0
"2009-10-17 01:46:00",1333938,12.56,99.3,7.359,1.299,12.63,103.9945,9.5,10.82,44.27,0,110.1,13.35,10.29,61.3
"2009-10-17 01:46:30",1333939,12.11,97,6.433,1.224,11.51,103.9801,9.46,10.74,44.38,0,110.1,13.35,10.25,59.0
"2009-10-17 01:47:00",1333940,13.09,102.2,6.177,1.154,13.71,103.9626,9.42,10.81,44.63,0,110.1,13.36,10.20,64.2
"2009-10-17 01:47:30",1333941,12.76,99.2,7.802,1.381,12.69,103.9621,9.42,10.72,44.69,0,110.1,13.36,10.20,61.2
"2009-10-17 01:48:00",1333942,12.84,100.1,6.466,1.081,12.95,103.9601,9.41,10.72,44.85,0,110.1,13.36,10.20,62.1